Onweer radar Meer informatie blitzortung!


Regen radar Meer informatie rain snow radar


Bezoek onze andere website:

Template documentation
and downloads

And another site



15 daagse weersverwachting Sheffield (GB)

  • Overzicht
  • Per uur
  • 15 dagen
  • Extra
  • Vergelijk
  • Kaarten
  • Dagkaart
  • Meer »
  • Info
  • Statistieken
  • Directe link
    Temp 6h Neerslag Wind  
 05:18     21:07    Daglengte: 15:49 Vandaag
19:00
16°
 
5
 05:20     21:06    Daglengte: 15:46 Morgen
01:00
13°
 
6
07:00
13°
 
7
13:00
17°
 
8
19:00
16°
 
6
 05:22     21:04    Daglengte: 15:42 Vrijdag 30 Jul
01:00
14°
 
3
07:00
13°
 
1
13:00
15°
20.0 mm
3
19:00
16°
35.9 mm
5
 05:23     21:02    Daglengte: 15:39 Zaterdag 31 Jul
01:00
15°
9.9 mm
5
07:00
15°
 
3
13:00
20°
19.9 mm
3
Locatie info
Region: England
Latitude: 53.3831°N
Longitude: -1.4646°E
75 masl
Postcode: S1 2
Temp/Neerslag /Baro Onweer/Dauwpunt
    Temp Baro 1h Neerslag Dauwpunt Wind UV Bewolking  
 05:18     21:07    Daglengte: 15:49 Vandaag
19:00
16°
1002.7 hPa
48%
10.9°
5
Windvlaag: 4.3 m/s
44%
20:00
15°
1002.8 hPa
14%
10.0°
5
Windvlaag: 2.7 m/s
31%
21:00
14°
1003.0 hPa
14%
10.2°
5
Windvlaag: 4.6 m/s
20%
22:00
13°
1003.2 hPa
14%
9.9°
5
Windvlaag: 5.8 m/s
22%
23:00
13°
1003.2 hPa
14%
9.6°
6
Windvlaag: 5.4 m/s
12%
 05:20     21:06    Daglengte: 15:46 Morgen
00:00
13°
1003.3 hPa
15%
9.5°
6
Windvlaag: 6.3 m/s
61%
01:00
13°
1003.2 hPa
14%
9.6°
6
Windvlaag: 6.4 m/s
30%
02:00
13°
1003.6 hPa
14%
9.8°
6
Windvlaag: 6.1 m/s
11%
03:00
13°
1003.9 hPa
14%
10.2°
5
Windvlaag: 5.2 m/s
9%
04:00
13°
1004.0 hPa
16%
9.6°
5
Windvlaag: 4.1 m/s
8%
05:00
13°
1004.3 hPa
14%
9.6°
6
Windvlaag: 4.9 m/s
6%
06:00
13°
1004.5 hPa
14%
10.0°
6
Windvlaag: 5.4 m/s
7%
07:00
13°
1005.0 hPa
14%
10.1°
7
Windvlaag: 6.7 m/s
5%
08:00
13°
1005.5 hPa
14%
10.1°
7
Windvlaag: 6.8 m/s
5%
09:00
14°
1005.9 hPa
14%
10.4°
8
Windvlaag: 6.8 m/s
5%
10:00
15°
1006.1 hPa
14%
11.3°
8
Windvlaag: 6.5 m/s
8%
11:00
16°
1006.2 hPa
14%
11.5°
8
Windvlaag: 5.9 m/s
31%
12:00
16°
1006.2 hPa
20%
11.1°
8
Windvlaag: 5.4 m/s
35%
13:00
17°
1006.5 hPa
28%
11.8°
8
Windvlaag: 4.9 m/s
29%
14:00
18°
1006.5 hPa
19%
11.7°
8
Windvlaag: 4.2 m/s
53%
15:00
18°
1006.6 hPa
14%
12.0°
8
Windvlaag: 4.3 m/s
32%
16:00
18°
1006.7 hPa
15%
13.3°
7
Windvlaag: 4.4 m/s
30%
17:00
17°
1007.1 hPa
15%
13.7°
7
Windvlaag: 4.5 m/s
30%
18:00
17°
1007.2 hPa
14%
13.8°
7
Windvlaag: 3.6 m/s
13%
19:00
16°
1007.3 hPa
14%
13.7°
6
Windvlaag: 2.4 m/s
19%
20:00
16°
1007.2 hPa
14%
13.2°
5
Windvlaag: 2.6 m/s
44%
21:00
15°
1007.3 hPa
14%
12.8°
4
Windvlaag: 2.4 m/s
44%
22:00
15°
1007.4 hPa
14%
12.5°
4
Windvlaag: 2.7 m/s
73%
23:00
14°
1007.3 hPa
14%
12.1°
3
Windvlaag: 2.9 m/s
69%
 05:22     21:04    Daglengte: 15:42 Vrijdag 30 Jul
00:00
14°
1007.2 hPa
14%
11.9°
3
Windvlaag: 2.9 m/s
72%
01:00
14°
1006.8 hPa
14%
11.8°
3
Windvlaag: 2.7 m/s
83%
02:00
14°
1006.4 hPa
16%
11.6°
2
Windvlaag: 3.1 m/s
69%
03:00
13°
1006.0 hPa
18%
11.6°
1
Windvlaag: 2 m/s
65%
04:00
13°
1005.4 hPa
80%
11.6°
1
Windvlaag: 1.1 m/s
62%
05:00
13°
1005.1 hPa
82%
11.4°
1
Windvlaag: 0.7 m/s
85%
06:00
13°
1004.8 hPa
82%
11.7°
2
Windvlaag: 1.6 m/s
85%
07:00
13°
1004.8 hPa
80%
11.8°
1
Windvlaag: 2.1 m/s
86%
08:00
13°
1005.0 hPa 4.0 mm
82%
11.8°
2
Windvlaag: 2.9 m/s
86%
09:00
13°
1004.8 hPa 4.1 mm
82%
11.8°
2
Windvlaag: 2 m/s
86%
10:00
14°
1004.6 hPa 4.3 mm
82%
11.8°
2
Windvlaag: 0.8 m/s
86%
11:00
14°
1004.5 hPa 4.2 mm
82%
12.3°
2
Windvlaag: -0.4 m/s
86%
12:00
15°
1004.4 hPa
82%
12.5°
3
Windvlaag: -0.8 m/s
86%
13:00
15°
1004.1 hPa 3.4 mm
82%
12.5°
3
Windvlaag: -1.4 m/s
86%
14:00
16°
1003.9 hPa 3.5 mm
81%
12.6°
3
Windvlaag: -1.4 m/s
79%
15:00
16°
1004.0 hPa
81%
13.5°
3
Windvlaag: -0.5 m/s
72%
16:00
17°
1003.6 hPa 6.2 mm
96%
12.6°
4
Windvlaag: -0.7 m/s
96%
17:00
16°
1003.8 hPa 7.4 mm
100%
13.3°
4
Windvlaag: 0 m/s
90%
18:00
16°
1004.2 hPa 9.0 mm
100%
14.1°
5
Windvlaag: -0.9 m/s
95%
19:00
16°
1004.6 hPa 9.8 mm
100%
13.6°
5
Windvlaag: -0.8 m/s
95%
20:00
16°
1005.0 hPa 9.9 mm
100%
12.5°
5
Windvlaag: -0.6 m/s
93%
21:00
15°
1005.5 hPa
95%
12.3°
4
Windvlaag: -0.5 m/s
88%
22:00
15°
1005.8 hPa
28%
12.0°
4
Windvlaag: 0.3 m/s
46%
23:00
15°
1005.7 hPa
27%
12.1°
4
Windvlaag: 0.3 m/s
75%
 05:23     21:02    Daglengte: 15:39 Zaterdag 31 Jul
00:00
15°
1005.9 hPa
22%
12.2°
5
Windvlaag: 0.3 m/s
63%
01:00
15°
1005.9 hPa
21%
12.3°
5
Windvlaag: 0.3 m/s
45%
02:00
15°
1005.8 hPa
21%
12.5°
4
Windvlaag: 0.5 m/s
41%
03:00
14°
1005.9 hPa
21%
12.4°
4
Windvlaag: 0.6 m/s
58%
04:00
14°
1005.8 hPa
21%
12.2°
3
Windvlaag: 0.6 m/s
57%
05:00
14°
1005.9 hPa
21%
12.2°
3
Windvlaag: 1.3 m/s
71%
06:00
14°
1006.1 hPa
27%
12.3°
3
Windvlaag: 1.6 m/s
81%
07:00
15°
1006.4 hPa
39%
11.8°
3
Windvlaag: 2.5 m/s
75%
08:00
16°
1006.5 hPa
74%
12.1°
3
Windvlaag: 2.9 m/s
75%
09:00
17°
1006.6 hPa
38%
12.2°
3
Windvlaag: 2.3 m/s
65%
10:00
18°
1006.7 hPa
44%
11.9°
4
Windvlaag: 1.7 m/s
66%
11:00
18°
1006.8 hPa
82%
11.3°
4
Windvlaag: 1.8 m/s
65%
12:00
19°
1006.8 hPa 9.9 mm
39%
11.3°
3
Windvlaag: 1.6 m/s
69%
13:00
20°
1006.5 hPa 10.0 mm
77%
11.1°
3
Windvlaag: 1.1 m/s
57%
14:00
20°
1007.1 hPa 9.9 mm
87%
11.7°
4
Windvlaag: 4.5 m/s
23%
15:00
20°
1007.1 hPa 9.9 mm
87%
11.8°
3
Windvlaag: 4.5 m/s
31%
16:00
21°
1006.8 hPa
82%
11.4°
4
Windvlaag: 5.6 m/s
48%
17:00
21°
1006.8 hPa
32%
11.6°
4
Windvlaag: 6.5 m/s
68%
18:00
20°
1006.7 hPa
22%
12.4°
4
Windvlaag: 6.8 m/s
75%
Temp/Neerslag /Baro Onweer/Dauwpunt
    Temp Baro Neerslag Dauwpunt Wind Bewolking  
 05:18     21:07    Daglengte: 15:49 Vandaag
19:00
16°
1002.7 hPa   10.9°
5
44%
22:00
13°
1003.2 hPa   9.9°
5
22%
 05:20     21:06    Daglengte: 15:46 Morgen
01:00
13°
1003.2 hPa   9.6°
6
30%
04:00
13°
1004.0 hPa   9.6°
5
8%
07:00
13°
1005.0 hPa   10.1°
7
5%
10:00
15°
1006.1 hPa   11.3°
8
8%
13:00
17°
1006.5 hPa   11.8°
8
29%
16:00
18°
1006.7 hPa   13.3°
7
30%
19:00
16°
1007.3 hPa   13.7°
6
19%
22:00
15°
1007.4 hPa   12.5°
4
73%
 05:22     21:04    Daglengte: 15:42 Vrijdag 30 Jul
01:00
14°
1006.8 hPa   11.8°
3
83%
04:00
13°
1005.4 hPa   11.6°
1
62%
07:00
13°
1004.8 hPa   11.8°
1
86%
10:00
14°
1004.6 hPa 12.3 mm 11.8°
2
86%
13:00
15°
1004.1 hPa 7.7 mm 12.5°
3
86%
16:00
17°
1003.6 hPa 9.7 mm 12.6°
4
96%
19:00
16°
1004.6 hPa 26.2 mm 13.6°
5
95%
22:00
15°
1005.8 hPa 9.9 mm 12.0°
4
46%
 05:23     21:02    Daglengte: 15:39 Zaterdag 31 Jul
01:00
15°
1005.9 hPa   12.3°
5
45%
04:00
14°
1005.8 hPa   12.2°
3
57%
07:00
15°
1006.4 hPa   11.8°
3
75%
10:00
18°
1006.7 hPa   11.9°
4
66%
13:00
20°
1006.5 hPa 19.9 mm 11.1°
3
57%
16:00
21°
1006.8 hPa 19.8 mm 11.4°
4
48%
19:00
19°
1006.8 hPa   12.3°
3
15%
22:00
13°
1008.5 hPa 19.8 mm 10.3°
3
1%
 05:25     21:00    Daglengte: 15:35 Zondag 01 Aug
01:00
12°
1008.6 hPa 19.8 mm 9.6°
3
0%
04:00
13°
1008.4 hPa 19.8 mm 10.7°
2
1%
07:00
13°
1009.4 hPa 20.1 mm 11.8°
2
1%
10:00
12°
1011.3 hPa 20.6 mm 10.7°
3
1%
13:00
15°
1012.0 hPa 20.6 mm 9.0°
3
1%
16:00
17°
1012.6 hPa 21.1 mm 8.4°
4
1%
19:00
17°
1013.0 hPa 21.2 mm 8.0°
3
1%
22:00
14°
1014.3 hPa 21.2 mm 7.8°
1
1%
 05:26     20:59    Daglengte: 15:33 Maandag 02 Aug
01:00
13°
1014.6 hPa 21.2 mm 8.1°
1
1%
04:00
11°
1014.2 hPa 21.2 mm 7.9°
1
0%
07:00
12°
1014.4 hPa 21.2 mm 9.2°
1
0%
10:00
16°
1014.4 hPa 21.3 mm 8.8°
2
0%
13:00
19°
1014.1 hPa 21.4 mm 6.5°
3
0%
16:00
20°
1013.7 hPa 21.4 mm 6.2°
3
1%
19:00
19°
1013.7 hPa 21.4 mm 8.2°
3
1%
22:00
13°
1014.7 hPa 21.4 mm 7.4°
2
0%
 05:28     20:57    Daglengte: 15:29 Dinsdag 03 Aug
01:00
12°
1015.0 hPa 21.4 mm 6.1°
2
0%
04:00
11°
1014.5 hPa 21.4 mm 4.9°
2
1%
07:00
12°
1014.7 hPa 21.4 mm 6.6°
2
1%
10:00
17°
1014.4 hPa 21.4 mm 7.4°
3
0%
13:00
20°
1013.7 hPa 21.4 mm 7.8°
3
0%
16:00
22°
1012.8 hPa 21.4 mm 7.4°
3
0%
19:00
20°
1012.7 hPa 21.4 mm 11.2°
3
0%
22:00
16°
1013.4 hPa 21.4 mm 11.6°
2
1%
 05:30     20:55    Daglengte: 15:25 Woensdag 04 Aug
01:00
14°
1013.3 hPa 21.4 mm 10.8°
2
1%
04:00
13°
1012.4 hPa 21.4 mm 9.7°
2
1%
07:00
15°
1012.0 hPa 21.4 mm 11.1°
2
1%
10:00
18°
1011.5 hPa 21.4 mm 10.3°
4
1%
13:00
19°
1010.9 hPa 21.5 mm 12.5°
5
1%
16:00
19°
1009.8 hPa   14.5°
5
1%
19:00
17°
1008.6 hPa 46.1 mm 15.2°
5
1%
 05:31     20:53    Daglengte: 15:22 Donderdag 05 Aug
01:00
15°
1007.1 hPa 49.8 mm 13.7°
4
1%
07:00
14°
1005.1 hPa 49.9 mm 12.5°
3
1%
13:00
18°
1003.5 hPa 54.1 mm 14.2°
4
1%
19:00
16°
1003.9 hPa 57.8 mm 13.2°
4
1%
 05:33     20:51    Daglengte: 15:18 Vrijdag 06 Aug
01:00
11°
1004.7 hPa 58.8 mm 9.7°
4
0%
07:00
13°
1004.5 hPa 60.5 mm 11.3°
6
1%
13:00
16°
1007.0 hPa 62.9 mm 11.9°
6
1%
19:00
17°
1007.0 hPa 63.3 mm 9.6°
4
0%
 05:35     20:49    Daglengte: 15:14 Zaterdag 07 Aug
01:00
12°
1006.0 hPa 63.4 mm 9.5°
3
1%
07:00
13°
1007.5 hPa 0.6 mm 10.7°
3
55%
13:00
19°
1008.3 hPa 0.4 mm 11.5°
4
61%
19:00
18°
1008.7 hPa 0.7 mm 11.4°
4
71%
 05:37     20:47    Daglengte: 15:10 Zondag 08 Aug
01:00
14°
1010.1 hPa 0.2 mm 10.7°
3
61%
07:00
14°
1009.4 hPa 0.4 mm 10.9°
3
69%
13:00
19°
1009.3 hPa 0.5 mm 11.8°
5
70%
19:00
19°
1009.1 hPa 1.4 mm 12.0°
4
69%
 05:38     20:45    Daglengte: 15:07 Maandag 09 Aug
01:00
14°
1010.9 hPa 0.1 mm 10.6°
4
52%
07:00
14°
1010.7 hPa 0.1 mm 11.1°
4
67%
13:00
19°
1011.1 hPa 0.6 mm 11.5°
5
76%
19:00
18°
1011.3 hPa 0.8 mm 11.3°
4
69%
 05:40     20:43    Daglengte: 15:03 Dinsdag 10 Aug
01:00
14°
1013.4 hPa 0.5 mm 10.6°
4
57%
07:00
14°
1014.4 hPa 0.2 mm 10.2°
4
59%
13:00
19°
1015.4 hPa 0.2 mm 10.3°
5
62%
19:00
18°
1015.6 hPa 1.1 mm 10.7°
5
60%
 05:42     20:41    Daglengte: 14:59 Woensdag 11 Aug
01:00
14°
1017.1 hPa 0.3 mm 10.2°
4
48%
07:00
13°
1017.3 hPa 0.6 mm 10.3°
4
52%
13:00
19°
1017.6 hPa 0.7 mm 10.3°
5
54%
19:00
18°
1017.0 hPa 0.3 mm 11.1°
4
56%
 05:43     20:39    Daglengte: 14:56 Donderdag 12 Aug
01:00
14°
1018.0 hPa 0.1 mm 11.0°
3
55%
07:00
14°
1017.4 hPa 0.4 mm 11.1°
3
58%
13:00
20°
1016.9 hPa 0.2 mm 12.1°
4
65%
  CAPE Lifted Index Hail Supercell Tornado SRH 3km CL BTM PRES CL TOP PRES Swiss DWD icon SMHI TS
 05:18     21:07    Daglengte: 15:49 Vandaag
19:00 494 J/kg -2.8 K 0 % 0 % 0 % 0 m²/s² 0 0 -1.09 3
20:00 397 J/kg -2.7 K 0 % 0 % 0 % 0 m²/s² 0 0 -0.06 3
21:00 24 J/kg 0.4 K 0 % 0 % 0 % 0 m²/s² 0 0 0.64 2
22:00 23 J/kg -0.5 K 0 % 0 % 0 % 0 m²/s² 0 0 -0.14 3
23:00 91 J/kg -0.6 K 0 % 0 % 0 % 0 m²/s² 0 0 -0.12 2
 05:20     21:06    Daglengte: 15:46 Morgen
00:00 0 J/kg -0.1 K 0 % 0 % 0 % 0 m²/s² 0 0 1.1 3
01:00 0 J/kg 0.4 K 0 % 0 % 0 % 0 m²/s² 0 0 1.39 2
02:00 0 J/kg 0.9 K 0 % 0 % 0 % 0 m²/s² 0 0 2.25 2
03:00 0 J/kg 0.9 K 0 % 0 % 0 % 0 m²/s² 0 0 2.13 2
04:00 0 J/kg 0.3 K 0 % 0 % 0 % 0 m²/s² 0 0 1.44 2
05:00 0 J/kg 1.1 K 0 % 0 % 0 % 0 m²/s² 0 0 3.02 1
06:00 1 J/kg 0.5 K 0 % 0 % 0 % 0 m²/s² 0 0 2.54 1
07:00 0 J/kg 1.5 K 0 % 0 % 0 % 0 m²/s² 0 0 3.75 1
08:00 0 J/kg 2.0 K 0 % 0 % 0 % 0 m²/s² 0 0 4.52 1
09:00 0 J/kg 2.5 K 0 % 0 % 0 % 0 m²/s² 0 0 4.81 1
10:00 1 J/kg 3.1 K 0 % 0 % 0 % 0 m²/s² 0 0 5.5 1
11:00 4 J/kg 3.2 K 0 % 0 % 0 % 0 m²/s² 0 0 4.88 2
12:00 7 J/kg 3.8 K 0 % 0 % 0 % 0 m²/s² 0 0 5.15 2
13:00 23 J/kg 3.1 K 0 % 0 % 0 % 0 m²/s² 0 0 4.63 3
14:00 19 J/kg 3.2 K 0 % 0 % 0 % 0 m²/s² 0 0 5.27 3
15:00 19 J/kg 3.2 K 0 % 0 % 0 % 0 m²/s² 0 0 6.35 2
16:00 11 J/kg 3.6 K 0 % 0 % 0 % 0 m²/s² 0 0 7.38 2
17:00 3 J/kg 3.6 K 0 % 0 % 0 % 0 m²/s² 0 0 6.75 2
18:00 0 J/kg 4.0 K 0 % 0 % 0 % 0 m²/s² 0 0 6.67 2
19:00 0 J/kg 4.1 K 0 % 0 % 0 % 0 m²/s² 0 0 6.56 2
20:00 0 J/kg 4.2 K 0 % 0 % 0 % 0 m²/s² 0 0 6.3 3
21:00 0 J/kg 4.6 K 0 % 0 % 0 % 0 m²/s² 0 0 6.85 3
22:00 0 J/kg 4.7 K 0 % 0 % 0 % 0 m²/s² 0 0 7.37 3
23:00 0 J/kg 4.8 K 0 % 0 % 0 % 0 m²/s² 0 0 7.32 3
 05:22     21:04    Daglengte: 15:42 Vrijdag 30 Jul
00:00 0 J/kg 4.8 K 0 % 0 % 0 % 0 m²/s² 0 0 7.62 3
01:00 0 J/kg 4.7 K 0 % 0 % 0 % 0 m²/s² 0 0 8.51 3
02:00 0 J/kg 4.6 K 0 % 0 % 0 % 0 m²/s² 0 0 8.92 3
03:00 0 J/kg 4.5 K 0 % 0 % 0 % 0 m²/s² 0 0 5.82 3
04:00 0 J/kg 4.6 K 0 % 0 % 0 % 0 m²/s² 0 0 5.35 3
05:00 0 J/kg 4.1 K 0 % 0 % 0 % 0 m²/s² 0 0 4.85 61
06:00 0 J/kg 4.1 K 0 % 0 % 0 % 0 m²/s² 0 0 4.73 61
07:00 0 J/kg 3.5 K 0 % 0 % 0 % 0 m²/s² 0 0 4.04 3
08:00 0 J/kg 3.4 K 0 % 0 % 0 % 0 m²/s² 0 0 4 61
09:00 26 J/kg 3.2 K 0 % 0 % 0 % 0 m²/s² 0 0 3.5 61
10:00 49 J/kg 2.9 K 0 % 0 % 0 % 0 m²/s² 0 0 3.23 61
11:00 47 J/kg 2.3 K 0 % 0 % 0 % 0 m²/s² 0 0 2.6 61
12:00 88 J/kg 2.0 K 0 % 0 % 0 % 0 m²/s² 0 0 2.3 61
13:00 138 J/kg 1.4 K 0 % 0 % 0 % 0 m²/s² 0 0 1.94 61
14:00 196 J/kg 0.1 K 0 % 0 % 0 % 0 m²/s² 0 0 0.49 61
15:00 333 J/kg -1.2 K 0 % 0 % 0 % 0 m²/s² 0 0 -1.08 3
16:00 290 J/kg -1.0 K 0 % 0 % 0 % 0 m²/s² 0 0 -0.76 61
17:00 114 J/kg -0.2 K 0 % 0 % 0 % 0 m²/s² 0 0 -0.17 61
18:00 93 J/kg 0.6 K 0 % 0 % 0 % 0 m²/s² 0 0 0.69 61
19:00 9 J/kg 1.2 K 0 % 0 % 0 % 0 m²/s² 0 0 1.53 61
20:00 7 J/kg 0.6 K 0 % 0 % 0 % 0 m²/s² 0 0 0.99 61
21:00 1 J/kg 1.0 K 0 % 0 % 0 % 0 m²/s² 0 0 1.78 3
22:00 0 J/kg 1.2 K 0 % 0 % 0 % 0 m²/s² 0 0 2.13 3
23:00 0 J/kg 0.7 K 0 % 0 % 0 % 0 m²/s² 0 0 1.39 3
 05:23     21:02    Daglengte: 15:39 Zaterdag 31 Jul
00:00 0 J/kg 1.3 K 0 % 0 % 0 % 0 m²/s² 0 0 1.72 3
01:00 0 J/kg 0.7 K 0 % 0 % 0 % 0 m²/s² 0 0 1.18 3
02:00 0 J/kg 0.9 K 0 % 0 % 0 % 0 m²/s² 0 0 1.29 2
03:00 0 J/kg 1.8 K 0 % 0 % 0 % 0 m²/s² 0 0 2.49 2
04:00 0 J/kg 2.1 K 0 % 0 % 0 % 0 m²/s² 0 0 2.67 2
05:00 0 J/kg 2.3 K 0 % 0 % 0 % 0 m²/s² 0 0 2.99 2
06:00 0 J/kg 2.6 K 0 % 0 % 0 % 0 m²/s² 0 0 3.56 3
07:00 0 J/kg 2.8 K 0 % 0 % 0 % 0 m²/s² 0 0 4.3 3
08:00 1 J/kg 2.4 K 0 % 0 % 0 % 0 m²/s² 0 0 3.84 3
09:00 2 J/kg 1.8 K 0 % 0 % 0 % 0 m²/s² 0 0 3.24 2
10:00 34 J/kg 0.9 K 0 % 0 % 0 % 0 m²/s² 0 0 2.34 2
11:00 37 J/kg 0.6 K 0 % 0 % 0 % 0 m²/s² 0 0 2.28 2
12:00 62 J/kg 0.4 K 0 % 0 % 0 % 0 m²/s² 0 0 2.02 3
13:00 112 J/kg 0.1 K 0 % 0 % 0 % 0 m²/s² 0 0 1.39 2
14:00 155 J/kg -0.3 K 0 % 0 % 0 % 0 m²/s² 0 0 0.72 2
15:00 196 J/kg -0.5 K 0 % 0 % 0 % 0 m²/s² 0 0 0.28 3
16:00 115 J/kg -0.3 K 0 % 0 % 0 % 0 m²/s² 0 0 0.81 3
17:00 71 J/kg -0.3 K 0 % 0 % 0 % 0 m²/s² 0 0 0.39 3
18:00 18 J/kg 0.0 K 0 % 0 % 0 % 0 m²/s² 0 0 0.75 3
Temp Baro Wind Neerslag
  EWN Forecast EWN WRFDA DWD ICON FMI HIRLAM MET Norway GFS
 05:18     21:07    Daglengte: 15:49 Vandaag
19:00 15.5° 1002.7 hPa 4.9 m/s 0.0 mm 15.4° 1002.0 hPa 4.0 m/s 14.2 mm 15.7° 1002.8 hPa 4.7 m/s -1.2 mm 15.7° 1002.6 hPa 5.4 m/s 0.0 mm 14.4° 1002.3 hPa 6.6 m/s
22:00 13.3° 1003.2 hPa 5.5 m/s 0.0 mm 13.0° 1002.6 hPa 6.4 m/s 46.1 mm 13.4° 1003.1 hPa 4.2 m/s 0.0 mm 13.8° 1003.4 hPa 5.9 m/s 0.0 mm 12.3° 1003.5 hPa 6.6 m/s
 05:20     21:06    Daglengte: 15:46 Morgen
01:00 13.0° 1003.2 hPa 5.7 m/s 0.0 mm 12.6° 1002.5 hPa 5.9 m/s 47.8 mm 13.0° 1003.2 hPa 5.1 m/s 0.0 mm 13.7° 1003.8 hPa 5.7 m/s 0.0 mm 12.0° 1003.8 hPa 6.7 m/s
04:00 12.8° 1004.0 hPa 5.1 m/s 0.0 mm 11.9° 1003.0 hPa 5.8 m/s 47.8 mm 12.8° 1004.2 hPa 3.3 m/s 0.0 mm 13.9° 1004.4 hPa 5.0 m/s 0.0 mm 12.2° 1004.2 hPa 6.0 m/s
07:00 13.2° 1005.0 hPa 6.7 m/s 0.0 mm 13.1° 1004.2 hPa 6.1 m/s 47.8 mm 13.3° 1005.1 hPa 5.0 m/s 0.0 mm 13.6° 1005.6 hPa 6.8 m/s 0.0 mm 13.0° 1005.2 hPa 7.0 m/s
10:00 15.0° 1006.1 hPa 8.2 m/s 0.0 mm 15.6° 1004.7 hPa 8.2 m/s 47.8 mm 15.8° 1006.4 hPa 6.0 m/s 0.0 mm 14.3° 1006.6 hPa 8.6 m/s 0.0 mm 15.9° 1006.0 hPa 7.7 m/s
13:00 16.9° 1006.5 hPa 8.1 m/s 0.0 mm 18.1° 1004.9 hPa 8.2 m/s 47.8 mm 17.8° 1006.5 hPa 7.1 m/s 0.0 mm 15.5° 1007.7 hPa 8.2 m/s 0.0 mm 18.8° 1005.7 hPa 8.2 m/s
16:00 17.7° 1006.7 hPa 7.4 m/s 0.0 mm 16.7° 1005.7 hPa 7.6 m/s 47.8 mm 18.2° 1006.6 hPa 6.5 m/s 0.0 mm 16.2° 1008.1 hPa 7.5 m/s 0.0 mm 17.5° 1006.3 hPa 8.1 m/s
19:00 16.5° 1007.3 hPa 6.0 m/s 0.0 mm 16.7° 1005.7 hPa 7.3 m/s 47.8 mm 16.8° 1007.2 hPa 4.5 m/s 0.0 mm 14.9° 1008.9 hPa 6.0 m/s 0.0 mm 15.4° 1006.6 hPa 6.2 m/s
22:00 14.7° 1007.4 hPa 3.9 m/s 0.0 mm 14.8° 1005.9 hPa 5.4 m/s 47.8 mm 15.1° 1007.2 hPa 2.0 m/s 0.0 mm 14.0° 1009.6 hPa 5.2 m/s 0.0 mm 13.1° 1006.7 hPa 4.3 m/s
 05:22     21:04    Daglengte: 15:42 Vrijdag 30 Jul
01:00 13.9° 1006.8 hPa 2.5 m/s 0.0 mm 13.7° 1005.0 hPa 2.9 m/s 47.8 mm 14.1° 1006.6 hPa 1.2 m/s 0.0 mm 13.9° 1009.2 hPa 4.1 m/s 0.0 mm 12.2° 1005.8 hPa 2.6 m/s
04:00 13.3° 1005.4 hPa 1.2 m/s 0.0 mm 13.0° 1003.6 hPa 1.5 m/s 47.8 mm 13.5° 1005.2 hPa 0.9 m/s 0.1 mm 13.7° 1008.5 hPa 3.0 m/s 0.0 mm 11.7° 1004.0 hPa 0.7 m/s
07:00 13.2° 1004.8 hPa 1.4 m/s 0.0 mm 13.8° 1002.7 hPa 2.4 m/s 47.8 mm 13.2° 1004.5 hPa 1.0 m/s 0.7 mm 13.7° 1008.1 hPa 1.3 m/s 0.0 mm 12.7° 1003.0 hPa 1.0 m/s
10:00 13.7° 1004.6 hPa 1.7 m/s 12.3 mm 15.3° 1002.6 hPa 0.7 m/s 47.9 mm 13.4° 1004.3 hPa 2.2 m/s 4.4 mm 14.5° 1008.3 hPa 1.5 m/s 0.0 mm 11.8° 1002.6 hPa 0.9 m/s
13:00 15.4° 1004.1 hPa 3.0 m/s 7.7 mm 18.0° 1002.4 hPa 1.8 m/s 48.4 mm 14.6° 1003.7 hPa 3.4 m/s 3.8 mm 15.2° 1008.2 hPa 1.6 m/s 0.0 mm 14.7° 1002.6 hPa 2.8 m/s
16:00 16.6° 1003.6 hPa 4.4 m/s 9.7 mm 18.0° 1002.8 hPa 6.3 m/s 52.1 mm 16.2° 1003.8 hPa 3.2 m/s 0.7 mm 14.5° 1003.4 hPa 4.3 m/s
19:00 15.9° 1004.6 hPa 5.0 m/s 26.2 mm 15.6° 1004.7 hPa 5.5 m/s 76.4 mm 15.9° 1004.6 hPa 3.1 m/s 1.1 mm 14.2° 1005.0 hPa 3.3 m/s
22:00 15.1° 1005.8 hPa 4.4 m/s 9.9 mm 15.4° 1005.4 hPa 4.7 m/s 88.2 mm 15.1° 1005.8 hPa 1.8 m/s 0.2 mm 13.9° 1006.0 hPa 4.6 m/s
 05:23     21:02    Daglengte: 15:39 Zaterdag 31 Jul
01:00 14.8° 1005.9 hPa 4.8 m/s 0.0 mm 15.1° 1005.3 hPa 5.5 m/s 88.2 mm 15.0° 1005.9 hPa 1.2 m/s 0.0 mm 13.1° 1006.5 hPa 4.1 m/s
04:00 14.0° 1005.8 hPa 3.4 m/s 0.0 mm 14.4° 1005.1 hPa 3.9 m/s 88.2 mm 14.0° 1005.9 hPa 0.9 m/s 0.0 mm 13.3° 1006.3 hPa 4.4 m/s
07:00 14.5° 1006.4 hPa 2.8 m/s 0.0 mm 14.9° 1005.4 hPa 4.1 m/s 88.2 mm 14.5° 1006.5 hPa 1.0 m/s 0.0 mm 14.0° 1006.7 hPa 3.8 m/s
10:00 17.6° 1006.7 hPa 3.5 m/s 0.0 mm 18.2° 1006.2 hPa 3.5 m/s 88.2 mm 18.1° 1006.9 hPa 3.6 m/s 0.0 mm 17.4° 1007.3 hPa 4.0 m/s
13:00 19.5° 1006.5 hPa 3.4 m/s 19.9 mm 20.6° 1006.1 hPa 4.0 m/s 88.2 mm 19.7° 1007.3 hPa 3.3 m/s 0.0 mm 19.1° 1007.1 hPa 4.2 m/s
16:00 20.7° 1006.8 hPa 3.8 m/s 19.8 mm 21.3° 1005.8 hPa 5.0 m/s 88.6 mm 20.5° 1007.0 hPa 3.5 m/s 0.2 mm 19.0° 1007.2 hPa 4.9 m/s
19:00 19.4° 1006.8 hPa 3.5 m/s 0.0 mm 18.8° 1006.0 hPa 5.0 m/s 88.8 mm 19.6° 1007.0 hPa 3.1 m/s 0.0 mm 17.0° 1007.6 hPa 4.1 m/s
22:00 12.6° 1008.5 hPa 2.9 m/s 19.8 mm 12.6° 1008.5 hPa 2.9 m/s 19.8 mm
 05:25     21:00    Daglengte: 15:35 Zondag 01 Aug
01:00 11.8° 1008.6 hPa 2.9 m/s 19.8 mm 11.8° 1008.6 hPa 2.9 m/s 19.8 mm
04:00 12.8° 1008.4 hPa 2.0 m/s 19.8 mm 12.8° 1008.4 hPa 2.0 m/s 19.8 mm
07:00 12.6° 1009.4 hPa 2.3 m/s 20.1 mm 12.6° 1009.4 hPa 2.3 m/s 20.1 mm
10:00 12.2° 1011.3 hPa 3.0 m/s 20.6 mm 12.2° 1011.3 hPa 3.0 m/s 20.6 mm
13:00 15.3° 1012.0 hPa 2.7 m/s 20.6 mm 15.3° 1012.0 hPa 2.7 m/s 20.6 mm
16:00 16.9° 1012.6 hPa 3.6 m/s 21.1 mm 16.9° 1012.6 hPa 3.6 m/s 21.1 mm
19:00 16.8° 1013.0 hPa 2.7 m/s 21.2 mm 16.8° 1013.0 hPa 2.7 m/s 21.2 mm
22:00 13.8° 1014.3 hPa 1.1 m/s 21.2 mm 13.8° 1014.3 hPa 1.1 m/s 21.2 mm
 05:26     20:59    Daglengte: 15:33 Maandag 02 Aug
01:00 13.0° 1014.6 hPa 0.8 m/s 21.2 mm 13.0° 1014.6 hPa 0.8 m/s 21.2 mm
04:00 10.6° 1014.2 hPa 1.1 m/s 21.2 mm 10.6° 1014.2 hPa 1.1 m/s 21.2 mm
07:00 12.0° 1014.4 hPa 1.2 m/s 21.2 mm 12.0° 1014.4 hPa 1.2 m/s 21.2 mm
10:00 16.3° 1014.4 hPa 2.4 m/s 21.3 mm 16.3° 1014.4 hPa 2.4 m/s 21.3 mm
13:00 19.1° 1014.1 hPa 3.0 m/s 21.4 mm 19.1° 1014.1 hPa 3.0 m/s 21.4 mm
16:00 20.0° 1013.7 hPa 3.1 m/s 21.4 mm 20.0° 1013.7 hPa 3.1 m/s 21.4 mm
19:00 18.5° 1013.7 hPa 3.0 m/s 21.4 mm 18.5° 1013.7 hPa 3.0 m/s 21.4 mm
22:00 13.3° 1014.7 hPa 1.8 m/s 21.4 mm 13.3° 1014.7 hPa 1.8 m/s 21.4 mm
 05:28     20:57    Daglengte: 15:29 Dinsdag 03 Aug
01:00 11.8° 1015.0 hPa 1.6 m/s 21.4 mm 11.8° 1015.0 hPa 1.6 m/s 21.4 mm
04:00 11.0° 1014.5 hPa 1.8 m/s 21.4 mm 11.0° 1014.5 hPa 1.8 m/s 21.4 mm
07:00 12.1° 1014.7 hPa 1.7 m/s 21.4 mm 12.1° 1014.7 hPa 1.7 m/s 21.4 mm
10:00 17.4° 1014.4 hPa 2.9 m/s 21.4 mm 17.4° 1014.4 hPa 2.8 m/s 21.4 mm
13:00 20.5° 1013.7 hPa 3.1 m/s 21.4 mm 20.5° 1013.7 hPa 3.1 m/s 21.4 mm
16:00 21.7° 1012.8 hPa 2.9 m/s 21.4 mm 21.7° 1012.8 hPa 2.9 m/s 21.4 mm
19:00 19.9° 1012.7 hPa 2.8 m/s 21.4 mm 19.9° 1012.7 hPa 2.8 m/s 21.4 mm
22:00 16.2° 1013.4 hPa 1.6 m/s 21.4 mm 16.2° 1013.4 hPa 1.6 m/s 21.4 mm
 05:30     20:55    Daglengte: 15:25 Woensdag 04 Aug
01:00 14.2° 1013.3 hPa 1.5 m/s 21.4 mm 14.2° 1013.3 hPa 1.5 m/s 21.4 mm
04:00 13.3° 1012.4 hPa 1.9 m/s 21.4 mm 13.3° 1012.4 hPa 1.9 m/s 21.4 mm
07:00 14.7° 1012.0 hPa 2.4 m/s 21.4 mm 14.7° 1012.0 hPa 2.4 m/s 21.4 mm
10:00 18.4° 1011.5 hPa 4.1 m/s 21.4 mm 18.4° 1011.5 hPa 4.1 m/s 21.4 mm
13:00 19.2° 1010.9 hPa 5.0 m/s 21.5 mm 19.2° 1010.9 hPa 5.0 m/s 21.5 mm
16:00 19.4° 1009.8 hPa 4.8 m/s 22.0 mm 19.4° 1009.8 hPa 4.8 m/s 22.0 mm
19:00 17.2° 1008.6 hPa 5.4 m/s 24.1 mm 17.2° 1008.6 hPa 5.4 m/s 24.1 mm
 05:31     20:53    Daglengte: 15:22 Donderdag 05 Aug
01:00 15.1° 1007.1 hPa 4.0 m/s 25.0 mm 15.1° 1007.1 hPa 4.0 m/s 25.0 mm
07:00 13.9° 1005.1 hPa 2.7 m/s 25.0 mm 13.9° 1005.1 hPa 2.7 m/s 25.0 mm
13:00 18.1° 1003.5 hPa 4.4 m/s 28.2 mm 18.1° 1003.5 hPa 4.4 m/s 28.2 mm
19:00 15.7° 1003.9 hPa 4.0 m/s 29.3 mm 15.7° 1003.9 hPa 4.0 m/s 29.3 mm
 05:33     20:51    Daglengte: 15:18 Vrijdag 06 Aug
01:00 11.5° 1004.7 hPa 3.6 m/s 29.4 mm 11.5° 1004.7 hPa 3.6 m/s 29.4 mm
07:00 12.8° 1004.5 hPa 6.1 m/s 30.9 mm 12.8° 1004.5 hPa 6.1 m/s 30.9 mm
13:00 16.3° 1007.0 hPa 6.5 m/s 31.6 mm 16.3° 1007.0 hPa 6.5 m/s 31.6 mm
19:00 16.8° 1007.0 hPa 3.6 m/s 31.7 mm 16.8° 1007.0 hPa 3.6 m/s 31.7 mm
 05:35     20:49    Daglengte: 15:14 Zaterdag 07 Aug
01:00 12.4° 1006.0 hPa 2.8 m/s 31.7 mm 12.4° 1006.0 hPa 2.8 m/s 31.7 mm
07:00 13.3° 1007.5 hPa 3.2 m/s 0.6 mm
13:00 18.6° 1008.3 hPa 4.0 m/s 0.4 mm
19:00 18.0° 1008.7 hPa 3.8 m/s 0.7 mm
 05:37     20:47    Daglengte: 15:10 Zondag 08 Aug
01:00 13.8° 1010.1 hPa 2.9 m/s 0.2 mm
07:00 13.6° 1009.4 hPa 3.1 m/s 0.4 mm
13:00 19.2° 1009.3 hPa 4.5 m/s 0.5 mm
19:00 18.6° 1009.1 hPa 4.2 m/s 1.4 mm
 05:38     20:45    Daglengte: 15:07 Maandag 09 Aug
01:00 14.2° 1010.9 hPa 3.8 m/s 0.1 mm
07:00 14.1° 1010.7 hPa 3.9 m/s 0.1 mm
13:00 19.1° 1011.1 hPa 5.4 m/s 0.6 mm
19:00 18.1° 1011.3 hPa 4.4 m/s 0.8 mm
 05:40     20:43    Daglengte: 15:03 Dinsdag 10 Aug
01:00 14.3° 1013.4 hPa 4.1 m/s 0.5 mm
07:00 13.6° 1014.4 hPa 4.0 m/s 0.2 mm
13:00 18.9° 1015.4 hPa 5.3 m/s 0.2 mm
19:00 17.5° 1015.6 hPa 4.9 m/s 1.1 mm
 05:42     20:41    Daglengte: 14:59 Woensdag 11 Aug
01:00 13.6° 1017.1 hPa 4.0 m/s 0.3 mm
07:00 13.3° 1017.3 hPa 4.0 m/s 0.6 mm
13:00 18.7° 1017.6 hPa 5.0 m/s 0.7 mm
19:00 17.9° 1017.0 hPa 4.3 m/s 0.3 mm
 05:43     20:39    Daglengte: 14:56 Donderdag 12 Aug
01:00 14.4° 1018.0 hPa 3.2 m/s 0.1 mm
07:00 13.9° 1017.4 hPa 2.8 m/s 0.4 mm
13:00 19.7° 1016.9 hPa 4.0 m/s 0.2 mm
FMI Hirlam - 7.5 km EWN WRFDA - 12 km DWD ICON - 7 km GFS - 25 km Basiskaart






























































Updatetijd (Europe/Amsterdam) Resolutie Lengte Stap
FMI Hirlam 19:00, 01:00, 07:00, 13:00 7.5 km 49h 1h
EWN WRFDA 16:30, 22:30, 04:30, 10:30 12 km 73h 1h
DWD ICON 18:00, 00:00, 06:00, 12:00 7 km 75h 1h
GFS 14:15, 20:15, 02:15, 08:15 25 km 237h 3h
30+ mm
25-30 mm
20-25 mm
15-20 mm
10-15 mm
6-10 mm
4-6 mm
2-4 mm
1-2 mm
0.5-1 mm
0.2-0.5 mm
0.1-0.2 mm
30+ mm
25-30 mm
20-25 mm
15-20 mm
10-15 mm
6-10 mm
4-6 mm
2-4 mm
1-2 mm
0.5-1 mm
0.2-0.5 mm
0.1-0.2 mm
Sneeuwval
Natte sneeuw
Hagel
Vorst
30+ mm
25-30 mm
20-25 mm
15-20 mm
10-15 mm
6-10 mm
4-6 mm
2-4 mm
1-2 mm
0.5-1 mm
0.2-0.5 mm
0.1-0.2 mm
Sneeuwval
Natte sneeuw
Hagel
Vorst
Onweer
50 mm
40 mm
30 mm
26 mm
22 mm
18 mm
14 mm
10 mm
9 mm
8 mm
7 mm
6 mm
5 mm
4.5 mm
4 mm
3.5 mm
3 mm
2.5 mm
2 mm
1.5 mm
1 mm
0.8 mm
0.6 mm
0.4 mm
0.2 mm
0.05 mm
35°
30°
25°
20°
15°
10°
-5°
-10°
-15°
-20°
-25°
-30°
-35°
33> m/s
29 m/s
25 m/s
21 m/s
17 m/s
14 m/s
11 m/s
8 m/s
5 m/s
3 m/s
0 m/s
2600 J/kg
2400 J/kg
2200 J/kg
2000 J/kg
1800 J/kg
1600 J/kg
1400 J/kg
1200 J/kg
1000 J/kg
800 J/kg
600 J/kg
400 J/kg
200 J/kg
70 dBZ
65 dBZ
60 dBZ
55 dBZ
50 dBZ
45 dBZ
40 dBZ
35 dBZ
30 dBZ
25 dBZ
20 dBZ
15 dBZ
10 dBZ
5 dBZ
-1 K
-2 K
-3 K
-4 K
-5 K
-6 K
-7 K
-8 K
-9 K
950 m²/s²
900 m²/s²
850 m²/s²
800 m²/s²
750 m²/s²
700 m²/s²
650 m²/s²
600 m²/s²
550 m²/s²
500 m²/s²
450 m²/s²
400 m²/s²
350 m²/s²
300 m²/s²
250 m²/s²